| time (UTC) | temp C | wind direction | speed KPH | gust KPH | rain 1hr cm | rain 24hr cm | rain mn cm | humidity % | barometer mb |
| 20260505100327 | 12 | 275 | 29.0 | 0.0 | 0.00 | 0.00 | 0.00 | 67 | 1007.3 |
| 20260505093333 | 11 | 254 | 27.4 | 0.0 | 0.00 | 0.00 | 0.00 | 70 | 1007.1 |
| 20260505090326 | 11 | 296 | 27.4 | 0.0 | 0.00 | 0.00 | 0.00 | 71 | 1007.3 |
| 20260505083320 | 10 | 290 | 25.7 | 0.0 | 0.00 | 0.00 | 0.00 | 72 | 1007.0 |
| 20260505080346 | 11 | 232 | 29.0 | 0.0 | 0.00 | 0.00 | 0.00 | 70 | 1007.3 |
| 20260505073328 | 10 | 260 | 22.5 | 0.0 | 0.00 | 0.00 | 0.00 | 73 | 1007.4 |
| 20260505070325 | 10 | 242 | 20.9 | 0.0 | 0.00 | 0.00 | 0.00 | 77 | 1007.6 |
| 20260505063319 | 7 | 246 | 12.9 | 0.0 | 0.00 | 0.00 | 0.00 | 85 | 1007.5 |
| 20260505060335 | 8 | 203 | 8.0 | 0.0 | 0.00 | 0.00 | 0.00 | 83 | 1007.7 |
| 20260505053321 | 9 | 195 | 3.2 | 0.0 | 0.00 | 0.00 | 0.00 | 81 | 1006.9 |
| 20260505050341 | 10 | 211 | 4.8 | 0.0 | 0.00 | 0.00 | 0.00 | 79 | 1007.1 |
| 20260505040402 | 8 | 243 | 11.3 | 0.0 | 0.00 | 0.00 | 0.15 | 83 | 1007.4 |
| 20260505033327 | 9 | 270 | 8.0 | 0.0 | 0.00 | 0.00 | 0.15 | 81 | 1007.2 |
| 20260505030342 | 8 | 245 | 11.3 | 0.0 | 0.00 | 0.00 | 0.15 | 85 | 1007.5 |
| 20260505023317 | 7 | 55 | 3.2 | 0.0 | 0.00 | 0.00 | 0.15 | 85 | 1006.9 |
| 20260505020331 | 7 | 288 | 1.6 | 0.0 | 0.00 | 0.00 | 0.15 | 84 | 1007.1 |
| 20260505013341 | 7 | 145 | 3.2 | 0.0 | 0.00 | 0.00 | 0.15 | 85 | 1006.9 |
| 20260505010319 | 8 | 340 | 6.4 | 0.0 | 0.00 | 0.00 | 0.15 | 85 | 1006.5 |
| 20260505003331 | 8 | 288 | 6.4 | 0.0 | 0.00 | 0.00 | 0.15 | 85 | 1006.2 |
| 20260505000330 | 8 | 29 | 4.8 | 0.0 | 0.00 | 0.00 | 0.15 | 85 | 1005.8 |
| 20260504233320 | 8 | 85 | 3.2 | 0.0 | 0.00 | 0.00 | 0.15 | 84 | 1005.4 |
| 20260504230332 | 9 | 350 | 6.4 | 0.0 | 0.00 | 0.00 | 0.15 | 82 | 1005.0 |
| 20260504223330 | 9 | 263 | 9.7 | 0.0 | 0.00 | 0.00 | 0.15 | 80 | 1004.3 |
| 20260504220332 | 10 | 318 | 6.4 | 0.0 | 0.00 | 0.00 | 0.15 | 82 | 1004.2 |
| 20260504213318 | 9 | 292 | 12.9 | 0.0 | 0.00 | 0.00 | 0.15 | 84 | 1004.0 |
| 20260504210334 | 8 | 302 | 9.7 | 0.0 | 0.00 | 0.00 | 0.15 | 85 | 1003.9 |
| 20260504203329 | 7 | 265 | 8.0 | 0.0 | 0.00 | 0.00 | 0.15 | 82 | 1003.7 |
| 20260504200324 | 7 | 315 | 8.0 | 0.0 | 0.00 | 0.00 | 0.15 | 82 | 1003.8 |
| 20260504193334 | 7 | 307 | 9.7 | 0.0 | 0.00 | 0.00 | 0.15 | 81 | 1003.5 |
| 20260504190330 | 7 | 253 | 9.7 | 0.0 | 0.00 | 0.00 | 0.15 | 73 | 1003.7 |
| 20260504183341 | 7 | 316 | 6.4 | 0.0 | 0.00 | 0.00 | 0.15 | 74 | 1003.8 |
| 20260504180338 | 7 | 262 | 9.7 | 0.0 | 0.00 | 0.00 | 0.15 | 78 | 1004.0 |
| 20260504173325 | 7 | 229 | 14.5 | 0.0 | 0.00 | 0.00 | 0.10 | 84 | 1003.9 |
| 20260504170320 | 10 | 300 | 16.1 | 0.0 | 0.00 | 0.00 | 0.00 | 68 | 1003.1 |
| 20260504160336 | 11 | 244 | 11.3 | 0.0 | 0.00 | 0.00 | 0.00 | 60 | 1003.4 |
| 20260504150315 | 9 | 273 | 12.9 | 0.0 | 0.00 | 0.00 | 0.00 | 62 | 1004.4 |
| 20260504140329 | 8 | 288 | 9.7 | 0.0 | 0.00 | 0.00 | 0.00 | 63 | 1004.9 |
| 20260504130320 | 6 | 311 | 9.7 | 0.0 | 0.00 | 0.00 | 0.00 | 69 | 1005.2 |
| 20260504110332 | 1 | 338 | 11.3 | 0.0 | 0.00 | 0.00 | 0.00 | 85 | 1004.4 |